Location: Alexander
(41.3564°N, 81.5960°W)
Time: 15:14:21
(UTC+00:00)

Cosmos 2279 Rocket - Pass Details

Date: 24 January 2021
Orbit: 964 x 979 km, 82.9° (Epoch: 01 March)

Event Time Altitude Azimuth Distance (km) Brightness Sun altitude
Rises 23:01:22 0° 350° (N) 3,690 6.9 -5.7°
Reaches altitude 10° 23:03:53 10° 350° (N) 2,737 6.3 -6.2°
Maximum altitude 23:10:09 77° 266° (W) 1,005 4.3 -7.3°
Drops below altitude 10° 23:16:21 10° 181° (S) 2,710 6.6 -8.4°
Sets 23:18:50 0° 180° (S) 3,651 7.2 -8.8°
